Tracking 23757 objects as of 25-Oct-2021
HD Live streaming from Space Station
objects crossing your sky now

FREGAT R/B

Track FREGAT R/B now!


NORAD ID: 41106
Int'l Code: 2015-074B
Perigee: 34,297.2 km
Apogee: 35,851.5 km
Inclination: 4.1 °
Period: 1,399.5 minutes
Semi major axis: 41445 km
RCS: Unknown
Launch date: December 11, 2015
Source: Commonwealth of Independent States (former USSR) (CIS)
Launch site: TYURATAM MISSILE AND SPACE COMPLEX (TTMTR)

Note: This is a ROCKET BODY
aabbcc
Your satellite tracking list
Your tracking list is empty




NASA's NSSDC Master Catalog

Two Line Element Set (TLE):
1 41106U 15074B   21297.71388147 -.00000033  00000-0  00000-0 0  9996
2 41106   4.1007  79.7645 0187514 311.5758  46.8607  1.02893731 22054
Source of the keplerian elements: AFSPC